Overview Statistics Trail Chart Weather Telemetry Raw packets
 

This is the latest recevied weather packets stored in our database for station/object W7TRD. If no packets are shown the sender has not sent any weather packets the latest 10 day(s).

<< 93 94 95 96 97 98 99 >>
Time Temp. Humidity Pressure Rain* Wind** Luminosity Snow
1787927313 13.89° C 92% 1019.5 hPa 0 mm - 62 W/m² -
1787927009 13.89° C 93% 1019.5 hPa 0 mm - 49 W/m² -
1787926708 13.89° C 93% 1019.4 hPa 0 mm - 48 W/m² -
1787926407 13.89° C 95% 1019.4 hPa 0 mm - 50 W/m² -
1787926102 13.33° C 96% 1019.3 hPa 0 mm - 40 W/m² -
1787925801 12.78° C 97% 1019.1 hPa 0 mm - 34 W/m² -
1787925501 12.78° C 97% 1019.1 hPa 0 mm - 26 W/m² -
1787925195 12.78° C 97% 1019.3 hPa 0 mm - 22 W/m² -
1787924894 12.78° C 97% 1019 hPa 0 mm - 17 W/m² -
1787924589 12.78° C 97% 1019.1 hPa 0 mm - 12 W/m² -
1787924284 12.78° C 97% 1018.9 hPa 0 mm - 8 W/m² -
1787923980 12.78° C 96% 1019 hPa 0 mm - 5 W/m² -
1787923680 12.78° C 96% 1018.9 hPa 0 mm - 3 W/m² -
1787923374 12.78° C 96% 1019.2 hPa 0 mm - 2 W/m² -
1787923069 12.78° C 96% 1018.8 hPa 0 mm - 1 W/m² -
1787922764 12.78° C 96% 1019 hPa 0 mm - 0 W/m² -
1787922463 12.78° C 96% 1019 hPa 0 mm - 0 W/m² -
1787922162 12.78° C 96% 1018.9 hPa 0 mm - 0 W/m² -
1787921861 12.78° C 96% 1019 hPa 0 mm - 0 W/m² -
1787921556 12.78° C 96% 1019.1 hPa 0 mm - 0 W/m² -
1787921256 12.78° C 96% 1018.9 hPa 0 mm - 0 W/m² -
1787920952 12.78° C 96% 1019.1 hPa 0 mm - 0 W/m² -
1787920647 12.78° C 96% 1019.1 hPa 0 mm - 0 W/m² -
1787920346 12.78° C 96% 1018.9 hPa 0 mm - 0 W/m² -
1787920043 12.78° C 96% 1019.2 hPa 0 mm - 0 W/m² -

* Rain latest hour (hover to see other rain measurements)
** Current wind speed in m/s (hover to see current wind gust speed)